Flag for South Africa Weather past 2 weeks in Bloemfontein, South Africa

Now
46 °F

Cool.


Feels Like: 43 °F
Forecast: 41 / 64 °F
Wind: 7 mph from East

Location: Bloemfontein Airport

Current Time: Sep 5, 2015 at 3:27:46 AM

Latest Report: Sep 5, 2015 at 2:00 AM


Visibility: N/A

Pressure: 30.42 "Hg (25.67 "Hg at 1397m altitude)

Humidity: 71%

Dew point: 37 °F

Location of BloemfonteinLocation

Historic Weather in Bloemfontein — Graph

°F

Bloemfontein temperature yesterday

Maximum temperature yesterday: 64 °F (at 2:00 PM)
Minimum temperature yesterday: 46 °F (at 2:00 AM)
Average temperature yesterday: 54 °F

Past Weeks' High & Low Weather Summary

 TemperatureHumidityPressure
High84 °F (Aug 28, 2:00 PM)87% (Sep 1, 7:00 AM)30.51 "Hg (Sep 1, 7:00 AM)
Low34 °F (Aug 21, 6:00 AM)12% (Aug 28, 2:00 PM)29.92 "Hg (Aug 31, 6:00 PM)
Average61 °F43%30.23 "Hg
* Reported Aug 21 2:00 AM — Sep 5 2:00 AM, Bloemfontein, Weather by CustomWeather, © 2015

Note: Actual official high and low records may vary slightly from our data, if they occured in-between our weather recording intervals... More about our weather records

Advertising

Bloemfontein weather history for previous 24 hours

 ConditionsComfort  
Time TempWeatherWind HumidityBarometerVisibility
2:00 AM
Sat, Sep 5
46 °FCool.7 mph71%30.42 "HgN/A
1:00 AM50 °FCool.10 mph67%30.42 "HgN/A
12:00 AM50 °FCool.7 mph67%30.45 "HgN/A
11:00 PM
Fri, Sep 4
52 °FCool.10 mph58%30.45 "HgN/A
10:00 PM52 °FCool.12 mph62%30.45 "HgN/A
9:00 PM54 °FCool.13 mph58%30.45 "HgN/A
8:00 PM52 °FPassing clouds.5 mph62%30.45 "HgN/A
7:00 PM54 °FPassing clouds.7 mph58%30.39 "HgN/A
6:00 PM59 °FPassing clouds.14 mph45%30.39 "HgN/A
5:00 PM61 °FBroken clouds.13 mph36%30.39 "HgN/A
4:00 PM63 °FBroken clouds.17 mph37%30.36 "HgN/A
3:00 PM63 °FPartly sunny.9 mph37%30.36 "HgN/A
2:00 PM64 °FScattered clouds.9 mph32%30.39 "HgN/A
1:00 PM63 °FScattered clouds.12 mph39%30.39 "HgN/A
12:00 PM61 °FPassing clouds.16 mph39%30.42 "HgN/A
11:00 AM61 °FSunny.15 mph36%30.48 "Hg10 mi
10:00 AM57 °FSunny.20 mph44%30.45 "Hg10 mi
9:00 AM54 °FSunny.20 mph51%30.48 "Hg10 mi
8:00 AM48 °FSunny.10 mph62%30.51 "Hg10 mi
7:00 AM46 °FSunny.9 mph66%30.45 "Hg10 mi
6:00 AM46 °FSunny.10 mph66%30.42 "Hg10 mi
5:00 AM46 °FClear.8 mph62%30.42 "Hg10 mi
4:00 AM46 °FCool.9 mph62%30.42 "HgN/A
3:00 AM46 °FCool.12 mph62%30.42 "HgN/A
Weather by CustomWeather, © 2015

See weather overviewHow to use our weather pages